This is the latest recevied weather packets stored in our database for station/object K1BWE-1. If no packets are shown the sender has not sent any weather packets the latest 10 day(s).
| Time | Temp. | Humidity | Pressure | Rain* | Wind** | Luminosity | Snow |
|---|---|---|---|---|---|---|---|
| 1777853791 | 30° C | 13% | 1011.7 hPa | 0 mm | - | 203 W/m² | - |
| 1777853487 | 30° C | 13% | 1011.5 hPa | 0 mm | - | 197 W/m² | - |
| 1777853184 | 30° C | 14% | 1011.6 hPa | 0 mm | - | 221 W/m² | - |
| 1777852881 | 30.56° C | 14% | 1011.8 hPa | 0 mm | - | 249 W/m² | - |
| 1777852580 | 31.11° C | 14% | 1011.6 hPa | 0 mm | - | 290 W/m² | - |
| 1777852276 | 30.56° C | 14% | 1011.6 hPa | 0 mm | - | 278 W/m² | - |
| 1777851974 | 30.56° C | 14% | 1011.7 hPa | 0 mm | - | 297 W/m² | - |
| 1777851672 | 31.11° C | 14% | 1011.6 hPa | 0 mm | - | 334 W/m² | - |
| 1777851369 | 31.11° C | 13% | 1011.6 hPa | 0 mm | - | 356 W/m² | - |
| 1777851064 | 31.11° C | 14% | 1011.8 hPa | 0 mm | - | 235 W/m² | - |
| 1777850761 | 31.11° C | 14% | 1011.5 hPa | 0 mm | - | 349 W/m² | - |
| 1777850459 | 31.11° C | 15% | 1011.7 hPa | 0 mm | - | 340 W/m² | - |
| 1777850157 | 31.67° C | 15% | 1011.6 hPa | 0 mm | - | 357 W/m² | - |
| 1777849853 | 31.11° C | 16% | 1011.5 hPa | 0 mm | - | 401 W/m² | - |
| 1777849550 | 31.67° C | 16% | 1011.4 hPa | 0 mm | - | 474 W/m² | - |
| 1777849247 | 31.11° C | 16% | 1011.7 hPa | 0 mm | - | 479 W/m² | - |
| 1777848944 | 31.11° C | 17% | 1011.9 hPa | 0 mm | - | 330 W/m² | - |
| 1777848639 | 31.67° C | 18% | 1011.8 hPa | 0 mm | - | 255 W/m² | - |
| 1777848337 | 31.67° C | 20% | 1011.5 hPa | 0 mm | - | 549 W/m² | - |
| 1777848035 | 31.67° C | 19% | 1011.9 hPa | 0 mm | - | 403 W/m² | - |
| 1777847733 | 31.67° C | 19% | 1012.2 hPa | 0 mm | - | 524 W/m² | - |
| 1777847428 | 31.67° C | 18% | 1012 hPa | 0 mm | - | 524 W/m² | - |
| 1777847126 | 31.67° C | 21% | 1012 hPa | 0 mm | - | 488 W/m² | - |
| 1777846824 | 31.67° C | 19% | 1012.2 hPa | 0 mm | - | 396 W/m² | - |
| 1777846522 | 31.67° C | 22% | 1012.5 hPa | 0 mm | - | 592 W/m² | - |
* Rain latest hour (hover to see other rain measurements)
** Current wind speed in m/s (hover to see current wind gust speed)